Location: ????????
(37.6846°N, 24.0673°E)
Time: 14:54:45
(UTC+00:00)

IRAS Rocket - Pass Details

Date: 14 July 2020
Orbit: 848 x 877 km, 100.1° (Epoch: 03 August)

Event Time Altitude Azimuth Distance (km) Brightness Sun altitude
Exits shadow 00:11:57 69° 251° (WSW) 908 4.1 -26.0°
Maximum altitude 00:12:01 69° 256° (WSW) 907 4.1 -26.0°
Drops below altitude 10° 00:17:30 10° 340° (NNW) 2,483 7.1 -25.5°
Sets 00:19:54 0° 343° (NNW) 3,425 8.0 -25.3°
